CST,Max TemperatureF,Mean TemperatureF,Min TemperatureF,Max Dew PointF,MeanDew PointF,Min DewpointF,Max Humidity, Mean Humidity, Min Humidity, Max Sea Level PressureIn, Mean Sea Level PressureIn, Min Sea Level PressureIn, Max VisibilityMiles, Mean VisibilityMiles, Min VisibilityMiles, Max Wind SpeedMPH, Mean Wind SpeedMPH, Max Gust SpeedMPH,PrecipitationIn, CloudCover, Events, WindDirDegrees
2012-10-1,87,79,71,77,73,70,94,85,66,29.91,29.83,29.77,10,10,6,12,3,,0.93,5,,165
2012-10-2,89,81,73,79,74,72,100,89,62,29.97,29.87,29.75,10,8,0,17,2,,0.00,6,Rain-Thunderstorm,100
2012-10-3,91,82,73,79,74,72,100,84,59,29.99,29.91,29.83,10,10,10,14,2,,0.00,5,,282
2012-10-4,87,81,75,79,75,72,94,81,70,30.02,29.92,29.81,10,10,10,12,2,,0.00,5,,150
2012-10-5,87,81,75,81,75,73,94,83,70,30.00,29.88,29.79,10,10,10,12,3,,0.00,5,,206
2012-10-6,91,84,77,79,75,72,89,78,55,29.90,29.85,29.75,10,10,10,12,5,,0.00,4,,165
2012-10-7,89,83,77,77,75,73,94,82,62,29.92,29.85,29.77,10,10,10,12,2,,0.00,5,,227
2012-10-8,87,80,73,79,74,72,94,84,66,29.96,29.86,29.76,10,9,5,12,2,,0.00,6,Rain,188
2012-10-9,89,81,73,79,74,72,100,88,62,29.98,29.89,29.77,10,9,6,12,2,,0.00,7,,82
2012-10-10,86,80,75,79,76,73,100,90,79,29.98,29.89,29.81,10,10,8,12,3,,0.00,7,,94
2012-10-11,87,81,75,79,76,73,94,90,70,29.97,29.90,29.80,10,9,4,14,6,,0.00,7,,101
2012-10-12,89,62,35,79,72,-15,94,82,11,29.98,29.91,29.83,10,10,10,14,2,,0.00,5,,264
2012-10-13,87,81,75,79,77,73,94,85,75,29.94,29.88,29.79,10,10,10,13,1,,0.00,4,,220
2012-10-14,89,82,75,79,77,72,100,85,70,29.94,29.88,29.81,10,10,10,14,2,,0.00,3,,207
2012-10-15,87,81,75,77,76,73,100,82,66,29.94,29.87,29.79,10,10,10,12,3,,0.00,3,,225
2012-10-16,87,81,75,77,74,73,94,81,62,29.94,29.86,29.78,10,10,8,9,2,,0.00,3,,190
2012-10-17,89,82,75,77,75,73,94,81,62,29.92,29.87,29.77,10,10,10,12,2,,0.00,4,,236
2012-10-18,89,82,75,77,75,73,94,80,62,29.91,29.84,29.69,10,10,10,9,2,,0.00,5,,285
2012-10-19,89,83,77,79,76,73,94,85,70,29.87,29.82,29.74,10,9,6,12,3,,0.00,5,,122
2012-10-20,86,80,75,77,75,73,94,87,70,29.90,29.82,29.74,10,10,8,12,6,,0.00,6,,40
2012-10-21,87,80,73,77,75,72,100,83,66,29.90,29.83,29.79,10,9,8,12,2,,0.00,5,,224
2012-10-22,87,81,75,79,75,73,94,88,70,29.89,29.82,29.74,10,9,3,12,1,,0.00,5,Rain,227
2012-10-23,87,81,75,79,75,73,94,85,66,29.87,29.79,29.72,10,10,8,12,1,,0.00,4,,224
2012-10-24,87,81,75,77,75,72,94,81,66,29.84,29.80,29.71,10,10,10,9,2,,0.00,4,,216
2012-10-25,87,80,73,79,75,72,94,86,66,29.86,29.82,29.76,10,9,4,12,3,,0.00,5,,210
2012-10-26,87,80,73,77,75,72,94,85,66,29.89,29.82,29.74,10,10,8,14,2,,0.00,5,,182
2012-10-27,89,82,75,77,75,73,94,86,62,29.90,29.82,29.29,10,10,10,9,3,,0.00,3,,110
2012-10-28,86,80,75,77,75,73,94,83,70,29.97,29.88,29.78,10,10,7,12,2,,0.00,5,,220
2012-10-29,87,79,71,75,74,72,100,81,62,29.97,29.91,29.83,10,10,8,9,2,,0.00,5,,247
2012-10-30,87,81,75,77,74,72,94,80,66,29.98,29.90,29.78,10,10,8,14,3,,0.00,5,,143
2012-10-31,87,80,73,77,73,70,94,81,66,29.98,29.90,29.76,10,10,8,14,3,,0.00,5,,212